Location: Elmsmere
(40.9284°N, 73.8207°W)
Time: 22:41:59
(UTC+00:00)

STARLINK-2734 - Pass Details

Date: 26 June 2021
Orbit: 546 x 548 km, 53.1° (Epoch: 31 July)

Event Time Altitude Azimuth Distance (km) Brightness Sun altitude
Exits shadow 06:46:55 44° 139° (SE) 763 4.1 -20.9°
Maximum altitude 06:47:02 44° 135° (SE) 761 4.1 -20.9°
Drops below altitude 10° 06:50:57 10° 63° (ENE) 1,818 7.0 -20.6°
Enters shadow 07:47:28 -70° 234° (SW) 12,541 10.4 -14.7°
